Location: Santaluz Observatory
(32.9930°N, 117.1510°W)
Time: 14:33:27
(UTC-07:00)

HST - Visible Passes

Search period start: 22 July 2014 00:00
Search period end: 01 August 2014 00:00
Orbit: 548 x 552 km, 28.5° (Epoch: 21 July)

Date Brightness Start Highest point End Pass type
(mag) Time Alt. Az. Time Alt. Az. Time Alt. Az.
22 Jul 1.1 21:30:02 10° WSW 21:34:03 45° S 21:34:35 42° SSE visible
23 Jul 1.2 21:23:12 10° WSW 21:27:12 44° S 21:28:04 38° SSE visible
24 Jul 1.4 21:16:24 10° WSW 21:20:21 41° S 21:21:30 33° SSE visible
25 Jul 1.5 21:09:36 10° WSW 21:13:30 37° S 21:14:55 28° SSE visible
26 Jul 1.8 21:02:51 10° WSW 21:06:37 33° SSW 21:08:18 24° SSE visible
27 Jul 2.0 20:56:08 10° WSW 20:59:44 28° SSW 21:01:42 19° SSE visible
28 Jul 2.3 20:49:29 10° WSW 20:52:51 23° SSW 20:55:07 15° SSE visible
29 Jul 2.7 20:42:56 10° WSW 20:45:56 19° SSW 20:48:33 12° SSE visible
30 Jul 3.0 20:36:34 10° WSW 20:39:00 15° SSW 20:41:27 10° SSE visible
31 Jul 3.2 20:30:37 10° SW 20:32:04 12° SSW 20:33:31 10° S visible
